FW6283 Weather Reports


time (UTC)temp
C
wind
direction
speed
KPH
gust
KPH
rain 1hr
cm
rain 24hr
cm
rain mn
cm
humidity
%
barometer
mb
20260508203021 13 13 4.8 16.1 0.00 0.61 0.03 54 1001.4
20260508201525 15 356 8.0 19.3 0.00 0.61 0.03 52 1001.3
20260508200017 13 352 8.0 17.7 0.00 0.61 0.03 59 1001.1
20260508194516 13 16 12.9 24.1 0.00 1.37 0.03 56 1001.0
20260508193013 13 4 11.3 25.7 0.00 1.37 0.03 56 1000.7
20260508191516 13 59 6.4 22.5 0.00 1.37 0.03 68 1000.7
20260508190012 13 53 9.7 24.1 0.00 2.18 0.03 63 1000.6
20260508184507 12 44 6.4 17.7 0.00 2.18 0.03 77 1001.0
20260508183008 12 52 3.2 20.9 0.00 2.18 0.03 78 1000.8
20260508181505 12 22 6.4 17.7 0.00 2.18 0.03 76 1000.8
20260508180004 13 92 8.0 16.1 0.00 2.18 0.03 76 1000.8
20260508174620 11 220 3.2 9.7 0.00 2.18 0.03 82 1001.0
20260508173100 10 177 6.4 14.5 0.00 2.18 0.03 80 1001.3
20260508171557 10 175 6.4 14.5 0.00 2.18 0.03 85 1001.3
20260508170059 10 160 6.4 14.5 0.00 2.18 0.03 84 1001.3
20260508164556 9 150 8.0 14.5 0.00 2.18 0.03 85 1001.3
20260508163056 9 189 6.4 14.5 0.00 2.18 0.03 84 1001.4
20260508161556 10 195 6.4 12.9 0.00 2.18 0.03 82 1001.2
20260508160055 10 166 6.4 16.1 0.00 2.18 0.03 83 1001.2
20260508154554 10 168 8.0 16.1 0.00 2.18 0.03 83 1001.4
20260508153054 11 157 4.8 14.5 0.00 2.18 0.03 84 1001.4
20260508151548 10 171 4.8 11.3 0.00 2.18 0.03 87 1001.7
20260508150046 9 143 4.8 12.9 0.00 2.18 0.03 88 1001.8
20260508144545 9 195 4.8 12.9 0.00 2.18 0.03 89 1001.9
20260508143048 10 166 6.4 12.9 0.00 2.18 0.03 91 1002.1
20260508141554 9 151 4.8 9.7 0.00 2.18 0.03 93 1002.2
20260508140041 10 143 4.8 11.3 0.00 2.18 0.03 94 1002.8
20260508134544 10 159 4.8 12.9 0.00 2.18 0.03 96 1002.6
20260508133032 9 166 3.2 11.3 0.00 2.18 0.03 97 1002.4
20260508131527 8 172 6.4 11.3 0.00 2.18 0.03 98 1002.3
20260508130024 8 184 1.6 8.0 0.00 2.18 0.03 99 1002.5
20260508124521 8 162 3.2 8.0 0.00 2.24 0.03 100 1002.3
20260508123017 7 120 0.0 3.2 0.00 2.24 0.03 99 1002.2
20260508121519 7 112 0.0 4.8 0.00 2.24 0.03 99 1002.6
20260508120115 7 92 3.2 6.4 0.00 2.24 0.03 100 1002.7
20260508114512 7 10 3.2 8.0 0.00 2.39 0.03 100 1002.3
20260508113014 7 21 0.0 4.8 0.00 2.39 0.03 100 1002.5
20260508111504 6 270 0.0 0.0 0.00 2.39 0.03 100 1002.5
20260508110008 5 247 0.0 0.0 0.00 2.39 0.03 100 1002.9
20260508104501 5 247 0.0 0.0 0.00 2.39 0.03 100 1002.8
20260508103059 5 246 0.0 0.0 0.00 2.39 0.03 100 1003.0
20260508101600 5 246 0.0 0.0 0.00 2.39 0.03 100 1002.7
20260508100055 5 283 0.0 0.0 0.03 2.39 0.03 100 1002.5
20260508094611 5 283 0.0 0.0 0.03 2.39 0.03 100 1002.6
20260508093050 4 244 0.0 4.8 0.03 2.39 0.03 100 1002.5
20260508091549 3 243 0.0 0.0 0.03 2.39 0.03 100 1002.8
20260508090051 3 243 0.0 0.0 0.00 2.39 0.00 100 1002.3
20260508084544 3 243 0.0 4.8 0.00 2.39 0.00 100 1001.8
20260508083042 3 164 0.0 0.0 0.00 2.39 0.00 100 1001.6
20260508081559 4 165 0.0 0.0 0.00 2.39 0.00 100 1001.5
20260508080044 4 165 0.0 0.0 0.00 2.39 0.00 100 1001.6
20260508074538 4 165 0.0 0.0 0.00 2.39 0.00 100 1001.7
20260508073041 4 165 0.0 0.0 0.00 2.39 0.00 100 1001.7
20260508071542 5 165 0.0 0.0 0.00 2.39 0.00 100 1001.7
20260508070035 5 164 0.0 0.0 0.00 2.39 0.00 100 1001.8
20260508064534 4 164 0.0 0.0 0.00 2.39 0.00 100 1001.6
20260508063046 4 164 0.0 0.0 0.00 2.39 0.00 100 1001.8
20260508061531 5 164 0.0 0.0 0.00 2.39 0.00 99 1001.6
20260508060034 5 165 0.0 0.0 0.00 2.39 0.00 99 1001.6
20260508054529 5 208 0.0 0.0 0.00 2.39 0.00 100 1001.4
20260508053026 5 208 0.0 3.2 0.00 2.39 0.00 100 1001.6
20260508051527 5 208 0.0 3.2 0.00 2.39 0.00 100 1001.5
20260508050023 5 211 0.0 0.0 0.00 2.39 0.00 100 1001.6
20260508044527 5 211 0.0 0.0 0.00 2.39 0.00 99 1001.6
20260508043021 6 212 0.0 1.6 0.00 2.39 0.00 100 1001.7
20260508041519 6 196 0.0 0.0 0.00 2.39 0.00 100 1001.4
20260508040017 6 196 0.0 3.2 0.00 2.39 0.00 99 1001.8
20260508034517 6 197 1.6 6.4 0.00 2.39 0.00 100 1001.8
20260508033017 6 199 3.2 8.0 0.00 2.39 0.00 100 1001.9
20260508031512 6 182 4.8 9.7 0.00 2.39 0.00 100 1002.0
20260508030009 6 194 3.2 8.0 0.00 2.39 2.39 99 1002.0
20260508024508 6 181 3.2 8.0 0.00 2.39 2.39 99 1002.2
20260508023008 7 129 3.2 8.0 0.00 2.39 2.39 99 1001.9
20260508021505 7 185 1.6 4.8 0.00 2.39 2.39 99 1002.1
20260508020007 7 185 1.6 4.8 0.00 2.39 2.39 100 1001.8
20260508014508 7 185 1.6 8.0 0.00 2.39 2.39 99 1001.8
20260508013004 8 76 0.0 6.4 0.00 2.39 2.39 99 1001.6
20260508011504 8 182 1.6 4.8 0.00 2.39 2.39 100 1001.4
20260508010004 8 77 0.0 6.4 0.00 2.39 2.39 99 1001.5
20260508004504 9 321 0.0 4.8 0.00 2.39 2.39 99 1001.5
20260508003002 8 291 3.2 6.4 0.00 2.39 2.39 100 1001.7
20260508001502 8 69 0.0 4.8 0.00 2.39 2.39 99 1001.5
20260508000001 8 277 1.6 4.8 0.00 2.39 2.39 99 1001.6
20260507234501 8 54 1.6 4.8 0.00 2.39 2.39 99 1001.6
20260507233100 8 26 1.6 4.8 0.00 2.39 2.39 99 1001.6
20260507231601 8 27 0.0 4.8 0.00 2.39 2.39 99 1001.8
20260507230106 9 6 1.6 6.4 0.00 2.39 2.39 98 1001.7
20260507224610 9 321 1.6 4.8 0.00 2.39 2.39 99 1001.7
20260507223058 8 53 1.6 9.7 0.00 2.39 2.39 98 1001.5
20260507221557 9 33 1.6 4.8 0.00 2.39 2.39 98 1001.8
20260507220057 8 136 3.2 11.3 0.00 2.39 2.39 98 1001.9
20260507214606 10 155 0.0 8.0 0.05 2.39 2.39 98 1002.1
20260507213057 10 104 1.6 11.3 0.15 2.39 2.39 98 1001.8
20260507211601 10 217 9.7 17.7 0.36 2.39 2.39 99 1002.5
20260507210100 10 154 6.4 16.1 0.56 2.39 2.39 98 1002.0
20260507204552 11 140 4.8 12.9 0.71 2.34 2.34 98 1001.7